TimeMDT,TemperatureF,Dew PointF,Humidity,Sea Level PressureIn,VisibilityMPH,Wind Direction,Wind SpeedMPH,Gust SpeedMPH,PrecipitationIn,Events,Conditions,WindDirDegrees,DateUTC
12:53 AM,57.0,35.1,44,29.83,10.0,Calm,Calm,-,N/A,,Overcast,0,2013-04-01 06:53:00
1:53 AM,55.0,37.9,53,29.81,10.0,WSW,10.4,-,N/A,,Mostly Cloudy,250,2013-04-01 07:53:00
2:53 AM,55.0,36.0,49,29.81,10.0,South,3.5,-,N/A,,Mostly Cloudy,180,2013-04-01 08:53:00
3:53 AM,55.4,35.6,47,29.95,10.0,South,4.6,-,N/A,,Overcast,190,2013-04-01 09:53:00
4:53 AM,54.0,37.0,53,29.82,10.0,East,4.6,-,0.00,,Mostly Cloudy,100,2013-04-01 10:53:00
5:53 AM,53.1,36.0,52,29.81,10.0,SW,8.1,-,N/A,,Mostly Cloudy,220,2013-04-01 11:53:00
6:53 AM,53.1,39.9,61,29.85,10.0,SSE,17.3,23.0,0.00,Rain,Light Rain,160,2013-04-01 12:53:00
7:53 AM,52.0,41.0,66,29.87,10.0,South,10.4,-,0.00,Rain,Light Rain,170,2013-04-01 13:53:00
8:53 AM,52.0,41.0,66,29.85,10.0,NNW,3.5,-,0.00,,Mostly Cloudy,330,2013-04-01 14:53:00
9:53 AM,55.9,39.9,55,29.84,10.0,Calm,Calm,-,N/A,,Mostly Cloudy,0,2013-04-01 15:53:00
10:53 AM,59.0,39.0,48,29.82,10.0,Variable,5.8,-,N/A,,Mostly Cloudy,0,2013-04-01 16:53:00
11:53 AM,57.9,37.9,47,29.84,10.0,SSE,23.0,32.2,N/A,,Mostly Cloudy,160,2013-04-01 17:53:00
12:53 PM,55.0,36.0,49,29.85,10.0,South,23.0,29.9,N/A,,Overcast,170,2013-04-01 18:53:00
1:53 PM,55.4,35.6,47,29.93,10.0,South,17.3,23.0,N/A,,Mostly Cloudy,170,2013-04-01 19:53:00
2:53 PM,55.9,36.0,47,29.85,10.0,SSW,6.9,-,N/A,,Mostly Cloudy,210,2013-04-01 20:53:00
3:53 PM,53.6,41.0,62,29.92,10.0,North,12.7,-,N/A,,Mostly Cloudy,360,2013-04-01 21:53:00
4:53 PM,55.4,39.2,54,29.90,10.0,North,11.5,-,N/A,,Mostly Cloudy,360,2013-04-01 22:53:00
5:53 PM,54.0,37.0,53,29.84,10.0,NW,11.5,-,N/A,,Overcast,310,2013-04-01 23:53:00
6:20 PM,48.2,41.0,76,29.94,10.0,WSW,13.8,-,0.00,Rain,Light Rain,240,2013-04-02 00:20:00
6:53 PM,48.9,41.0,74,29.89,10.0,SW,3.5,-,0.00,Rain,Light Rain,230,2013-04-02 00:53:00
7:14 PM,46.4,42.8,87,29.97,3.0,East,8.1,-,0.04,Rain,Heavy Rain,100,2013-04-02 01:14:00
7:49 PM,46.4,42.8,87,29.97,4.0,East,6.9,-,0.13,Rain,Light Rain,80,2013-04-02 01:49:00
7:53 PM,46.0,42.1,86,29.92,5.0,ENE,6.9,-,0.13,Rain,Light Rain,70,2013-04-02 01:53:00
8:53 PM,46.0,42.1,86,29.93,6.0,ENE,6.9,-,0.07,Rain,Light Rain,70,2013-04-02 02:53:00
9:53 PM,46.0,42.1,86,29.92,8.0,East,3.5,-,0.04,Rain,Light Rain,100,2013-04-02 03:53:00
10:53 PM,46.0,43.0,89,29.91,8.0,WSW,5.8,-,0.02,Rain,Light Rain,240,2013-04-02 04:53:00
11:18 PM,46.4,44.6,93,29.98,5.0,SSW,3.5,-,0.02,Rain,Light Rain,210,2013-04-02 05:18:00
11:53 PM,45.0,43.0,93,29.92,5.0,SE,5.8,-,0.08,Rain,Light Rain,140,2013-04-02 05:53:00